Temp_Advection
nan nan nan nan nan nan nan nan nan nan nan nan nan nan nan nan nan nan nan nan nan nan nan nan nan nan nan nan nan nan nan nan nan nan nan nan nan nan nan nan nan nan nan nan nan
nan -2 -1 -0 -0 0 0 0 0 0 0 0 0 -0 -0 -0 -0 -0 -0 0 0 0 -0 -0 -0 -0 -0 -0 -0 -0 -0 -2 -2 -1 -0 -0 -0 0 1 1 1 -0 1 1 nan
nan -2 -1 -1 -0 -0 0 1 0 0 0 -0 0 -0 -0 -0 -0 -0 0 0 0 0 0 -0 -0 -0 -1 -0 -0 0 -1 -1 -1 0 -1 -1 -0 0 0 0 -0 -1 2 1 nan
nan -1 -1 -1 -0 0 1 1 0 0 0 0 -0 -0 -0 -0 0 0 -0 0 0 0 0 -0 -0 -0 -0 -0 -0 -0 -1 -0 -0 -0 -1 -0 -1 -0 0 -1 -0 2 0 0 nan
nan -0 -1 -1 -1 0 1 1 0 0 0 0 -0 -0 -0 -0 -0 0 -0 -0 -0 -0 -0 -0 -0 -0 -0 -0 0 -0 -0 -0 -0 0 -0 -0 -0 -1 -0 1 0 -0 -0 -0 nan
nan -0 -0 -1 -1 -0 1 0 0 0 0 0 -0 0 -0 -0 0 0 0 -0 -0 -0 -0 -0 -0 -0 -0 -0 -0 -0 -1 -0 -0 -0 -0 -0 -0 -1 -0 0 0 -0 -1 0 nan
nan -0 -0 -0 -0 0 1 -0 0 0 0 -0 0 0 -0 -0 0 0 0 -0 0 -0 -0 0 0 -0 -0 -0 -0 -0 -1 -1 -0 -0 -0 0 -0 -1 -1 1 -0 -1 0 1 nan
nan -0 -0 0 -0 0 0 -0 0 0 -0 -0 0 0 -0 0 0 -0 -0 0 0 0 0 0 0 -0 0 -0 -1 -0 -0 -1 -1 -0 -0 0 -1 -2 1 0 -0 -0 0 0 nan
nan -0 -0 -0 -0 0 0 0 0 -0 0 0 0 0 -0 0 -0 -0 0 0 0 0 0 -0 -0 0 0 0 -0 -0 -0 -1 -1 -1 0 0 -1 -1 0 0 -0 -0 -0 0 nan
nan -0 -1 -0 0 0 -0 0 -0 0 0 -0 -0 -0 -0 -0 0 0 0 0 0 0 0 -0 0 0 0 -0 -1 -0 -1 -1 -1 -1 0 -0 -1 0 0 -0 -0 -0 -0 0 nan
nan -0 -0 0 0 1 -0 -0 -0 -0 -0 -0 -0 -0 -0 0 0 -0 0 0 -0 -0 -0 0 0 -1 -0 -0 -0 -1 -1 -0 -1 -0 0 -1 -0 -1 -0 -0 0 0 -0 -0 nan
nan -0 0 0 0 0 1 0 -0 -0 -0 0 0 -0 -0 -0 -0 0 0 -0 -0 -0 0 0 -1 -0 0 -0 0 -1 -1 -1 -0 -0 -1 -0 -0 -0 0 0 0 0 0 0 nan
nan -0 -0 -0 0 0 0 0 0 0 -0 -0 -0 -0 0 0 -0 0 0 -0 0 0 0 -0 -0 0 -0 -1 -1 -1 -1 1 -0 0 -0 -0 0 0 0 0 0 -0 -0 0 nan
nan -0 -0 0 -0 0 -0 -0 0 0 0 -0 -0 -0 -0 -0 -0 0 0 0 0 -0 -0 -0 -0 0 -1 -1 -1 -1 0 0 -2 -0 0 1 0 0 0 -0 -0 -0 0 0 nan
nan -0 1 0 -0 -0 -0 0 0 0 0 -0 -0 -0 -0 -0 0 0 0 0 -0 0 -0 0 0 -0 -1 -1 -0 -0 -0 0 -1 0 -1 0 0 0 -0 0 0 -0 0 -0 nan
nan -0 0 0 0 -0 0 0 0 -0 -0 0 0 -0 -0 -1 -0 -0 -0 -0 -0 -0 -0 -0 -0 -0 -1 -0 0 -0 0 0 -0 -0 0 0 -0 -1 -0 -0 -0 -0 0 -0 nan
nan -0 -0 0 0 0 0 0 -0 0 0 -0 -0 -0 -0 -0 -0 -0 -0 -0 0 -0 0 -0 -0 -0 -0 0 -0 -0 -1 0 -0 0 0 0 -1 -1 0 -0 -0 -0 -0 0 nan
nan -0 0 0 0 0 0 -0 0 -0 -0 0 -0 -0 -0 0 0 0 -0 -0 0 0 0 0 0 0 -0 0 -0 -1 -1 0 0 0 0 -1 -1 0 0 -0 -0 0 0 0 nan
nan 0 0 0 0 0 -0 0 0 0 0 -0 -0 -0 -0 -0 -0 0 -0 0 0 0 0 0 0 -0 -0 0 0 0 0 -0 -0 -0 -1 -0 -0 0 0 -1 -0 0 1 -0 nan
nan -0 -0 0 0 0 -0 0 0 -0 -0 -0 -0 -0 -0 0 0 0 -0 -0 0 0 0 0 0 -0 -0 -0 0 0 0 -0 -0 -0 -0 -0 0 0 0 0 -0 1 0 -0 nan
nan -0 -0 0 0 -0 -0 0 -0 -0 -0 -0 0 0 -0 -0 -0 -0 -0 -0 -0 -0 0 0 0 -0 -0 -0 -0 -0 -0 0 -0 -0 -0 -1 -0 0 0 0 -0 -0 -0 -0 nan
nan -0 -0 1 -0 -1 -0 -0 -0 0 0 -0 -0 0 -0 -0 0 -0 -0 -0 -0 -0 -0 0 0 -0 0 0 0 -0 0 0 -0 -0 -0 -1 -0 0 0 0 -0 -0 -0 -0 nan
nan -0 0 0 0 -0 -0 0 0 -0 0 -0 0 0 -0 0 -0 -0 0 -0 -0 -0 -0 -0 -0 -0 -0 0 0 0 0 -0 -0 -0 -0 -0 -0 0 -0 -0 -1 -0 -0 -0 nan
nan -0 -0 -0 -0 -0 -0 0 -0 0 -0 -0 0 0 0 0 -0 -0 0 0 0 -0 0 -0 -0 -0 -0 -0 -0 -0 -0 -0 -0 0 0 -1 -0 0 -0 -0 -0 -0 -0 -1 nan
nan -0 -0 -0 -0 0 0 0 -0 -0 0 0 0 0 0 -0 -0 -0 0 0 -0 0 0 0 -0 -0 0 0 0 0 0 -0 0 0 0 -0 -0 -0 -0 -0 -0 -0 -0 -1 nan
nan -0 -0 0 0 -0 -0 -0 -0 -0 -0 0 0 0 -0 -0 -0 -0 -0 -0 -0 0 -0 -0 -0 0 0 0 0 0 -0 -0 0 -0 -0 -0 -0 0 -0 -0 -0 -0 -0 -0 nan
nan nan nan nan nan nan nan nan nan nan nan nan nan nan nan nan nan nan nan nan nan nan nan nan nan nan nan nan nan nan nan nan nan nan nan nan nan nan nan nan nan nan nan nan nan
Wind_Speed
30 26 22 20 17 18 18 14 13 13 11 14 7 8 10 11 9 7 7 7 6 10 6 5 5 5 7 14 17 11 10 18 25 25 21 28 21 29 23 26 32 21 25 12 5
27 30 22 17 23 24 20 15 13 12 11 12 6 9 8 10 8 11 9 7 7 4 4 5 6 7 11 11 13 14 13 22 19 19 20 25 27 28 23 33 25 32 18 11 12
21 20 16 17 17 23 22 17 12 10 10 9 6 8 6 9 10 2 8 8 5 4 3 2 4 7 12 15 17 18 21 19 20 22 21 25 23 18 19 13 20 25 31 13 14
19 19 16 12 15 20 22 17 10 8 9 6 6 5 4 5 2 3 7 6 6 4 1 4 6 9 8 10 16 20 25 21 24 27 17 17 18 20 20 26 26 27 10 14 15
21 20 16 12 12 25 24 17 8 8 8 3 5 3 3 3 8 7 8 7 6 2 5 8 9 10 12 9 13 17 19 25 24 23 22 22 21 20 24 20 18 15 15 14 18
21 19 14 9 14 25 24 16 7 7 7 4 6 3 1 6 3 6 7 5 4 5 6 7 7 7 11 14 13 16 19 21 25 25 21 19 24 28 23 22 18 16 19 14 13
21 21 7 5 10 24 23 13 5 7 7 7 6 3 4 9 1 5 6 5 7 6 7 7 8 8 4 11 13 17 21 21 23 21 21 18 23 26 27 19 16 20 21 13 18
20 19 6 7 8 24 19 10 5 3 3 11 7 3 5 8 5 7 7 8 7 8 7 6 7 12 13 11 17 15 19 18 22 21 24 23 20 22 28 13 20 17 15 17 20
22 19 12 13 8 20 14 7 6 9 9 9 6 3 5 6 5 6 9 9 9 8 7 7 8 10 5 7 9 12 14 19 21 20 18 19 17 18 11 11 15 13 16 16 19
20 18 15 14 21 27 15 11 14 10 9 8 4 2 6 2 4 5 8 10 10 10 10 10 7 5 4 6 11 7 14 18 17 18 20 20 16 4 9 12 14 12 11 15 15
18 13 12 9 21 23 17 18 11 3 8 5 5 2 1 3 3 5 9 8 11 12 13 10 6 12 15 16 20 17 16 14 16 19 21 20 17 15 13 11 16 13 11 12 16
12 9 5 5 18 18 17 7 6 6 5 12 3 6 6 3 5 7 6 8 11 12 12 5 15 15 11 15 15 16 13 17 17 14 18 18 15 12 12 14 18 15 13 14 12
12 9 13 6 16 17 14 7 10 9 3 4 5 4 2 4 5 5 11 5 9 8 10 11 6 3 7 12 12 14 18 17 6 20 19 14 11 10 7 8 12 12 15 12 7
8 5 9 21 17 16 13 11 11 5 1 5 3 2 2 3 5 9 10 5 3 3 4 7 6 8 11 13 13 14 14 9 17 18 9 16 6 5 5 6 10 12 10 7 6
5 2 18 25 5 16 6 15 10 2 3 4 4 3 2 6 1 7 6 4 3 2 2 3 2 5 8 10 10 8 14 10 15 8 14 6 3 5 6 2 4 2 6 7 10
4 5 21 14 4 7 13 16 6 3 3 3 4 3 5 10 4 4 5 5 4 2 4 3 3 3 6 7 10 9 4 7 3 5 5 5 3 10 7 6 1 9 7 11 13
6 7 12 13 5 17 20 8 2 2 1 4 4 5 5 2 2 1 3 3 2 3 1 2 1 4 6 2 6 3 5 2 1 3 4 8 6 6 11 10 3 5 5 11 13
7 3 12 13 7 22 13 3 1 3 3 1 3 5 1 2 2 2 3 3 3 3 2 4 3 5 3 4 3 6 5 3 3 2 5 11 8 5 10 8 7 4 6 13 13
5 11 13 13 19 22 4 0 2 3 2 5 5 4 3 2 2 2 4 5 5 7 4 1 3 5 1 7 6 4 2 4 1 11 5 3 1 3 9 10 12 5 20 19 14
21 16 15 17 18 10 2 2 2 1 1 2 1 4 2 4 2 3 5 7 4 6 4 3 2 4 7 7 3 2 2 3 1 2 6 5 5 5 11 14 13 13 21 19 13
19 8 10 12 15 4 0 4 3 1 2 4 4 2 4 4 6 5 6 6 9 6 4 1 3 5 3 8 9 8 6 4 4 3 3 5 6 6 9 12 14 15 19 17 14
9 4 14 18 1 5 1 3 3 1 1 2 3 5 7 4 5 3 6 7 12 6 5 5 3 3 2 4 2 5 7 6 4 3 4 8 6 6 9 11 12 14 15 16 17
7 7 12 4 1 2 2 2 3 2 4 4 3 5 4 4 1 3 4 5 9 8 5 6 3 1 3 4 4 4 10 9 3 4 5 1 7 7 8 11 15 15 15 15 15
8 3 2 2 3 0 3 1 2 1 2 3 3 2 2 4 4 3 2 4 6 6 5 4 5 5 5 5 5 7 12 13 5 5 12 12 15 10 9 10 11 14 13 13 15
4 3 5 4 3 4 0 1 4 1 2 3 2 4 5 2 2 4 4 2 2 4 2 3 4 5 8 6 5 7 10 13 11 6 9 13 12 9 9 9 10 10 12 16 17
2 5 5 5 6 6 4 5 6 2 3 2 2 4 6 5 5 4 5 4 4 4 3 1 3 1 4 6 4 7 10 7 10 9 8 10 8 5 7 8 9 11 12 13 14
2 10 4 8 7 5 4 3 5 2 2 3 2 2 6 6 6 7 7 6 6 6 5 4 2 0 2 3 1 1 8 7 5 8 5 1 4 3 4 5 3 5 6 7 7
Wind_Direction
284 286 291 313 299 291 291 282 285 288 303 311 282 288 312 324 318 303 265 242 218 229 216 250 258 249 243 238 236 239 250 243 243 248 249 256 256 230 239 242 254 253 254 244 254
297 282 285 290 272 287 285 279 275 285 292 307 254 274 307 327 310 277 255 233 196 199 225 247 252 255 244 237 224 225 240 245 255 260 256 254 253 256 225 236 239 267 266 240 234
322 304 287 275 280 274 270 265 264 273 290 293 244 267 307 340 306 271 235 198 180 178 202 261 265 267 256 242 233 237 246 264 258 252 275 266 273 275 282 230 275 254 253 238 176
321 326 310 276 284 268 253 250 258 265 281 271 234 260 312 348 329 153 128 127 200 162 184 275 261 248 248 244 238 252 255 259 261 271 285 273 276 272 249 265 258 244 300 314 216
319 324 320 283 261 242 239 241 237 257 266 269 219 266 327 263 256 218 166 175 165 205 259 259 260 262 254 263 263 263 264 261 259 258 260 266 269 274 266 265 283 283 261 307 234
318 319 309 290 266 222 236 237 240 239 226 231 206 246 223 259 211 197 190 201 222 240 246 238 252 274 285 272 265 271 279 269 262 257 248 252 253 251 248 249 265 271 240 275 295
317 314 299 289 295 221 228 214 212 242 213 213 194 210 254 247 260 197 195 210 228 243 255 253 259 255 292 288 276 275 272 262 258 250 246 248 253 245 244 240 260 256 246 274 310
312 315 278 228 360 215 202 213 224 195 170 176 174 146 269 265 207 223 219 233 244 237 253 264 257 261 265 265 283 274 270 259 245 239 227 229 256 230 232 227 248 249 247 261 302
306 309 297 226 222 211 202 197 181 130 137 153 150 152 274 276 227 223 224 233 241 239 249 260 256 245 222 259 272 239 259 237 251 232 229 202 239 248 190 209 237 249 246 254 284
309 317 326 250 204 207 192 171 131 144 141 146 138 171 231 243 189 202 224 232 231 243 243 234 236 249 229 228 262 283 243 248 250 224 216 202 230 172 197 216 234 256 260 255 273
305 309 21 164 189 195 163 131 128 142 180 194 143 84 169 219 243 242 235 238 233 236 240 199 224 238 242 248 254 284 283 274 256 221 201 206 210 236 241 222 228 258 297 286 281
301 293 233 127 188 168 170 151 176 144 154 218 137 237 259 248 274 232 203 224 210 231 231 202 242 254 302 261 251 250 264 265 250 199 188 201 204 226 232 226 230 227 283 278 301
292 289 215 253 188 191 179 167 148 136 134 129 199 256 236 211 253 227 203 228 250 259 243 231 234 148 283 263 233 231 248 267 234 171 209 173 206 200 231 239 221 226 264 269 268
264 247 254 183 187 190 198 157 144 140 136 122 188 158 164 209 255 214 215 236 192 279 264 249 280 254 253 237 230 252 244 247 182 169 165 197 151 171 197 228 216 208 240 225 184
240 236 159 173 189 187 196 146 143 152 153 141 142 197 201 222 334 205 195 159 251 245 241 80 232 186 220 230 214 262 304 225 217 202 124 184 224 81 55 101 162 76 206 155 159
247 187 173 185 152 167 146 144 138 207 102 172 149 203 222 210 204 141 194 204 227 242 214 285 282 242 269 270 227 284 293 326 333 279 81 39 220 67 8 340 47 30 126 138 132
193 191 187 208 173 142 138 151 197 69 208 166 202 200 222 132 110 215 215 177 317 280 341 250 226 265 247 264 155 319 279 132 127 56 52 12 44 57 7 336 341 348 6 128 135
158 233 198 219 173 147 143 226 70 82 139 102 188 205 216 340 140 7 65 123 355 350 347 5 278 352 304 253 219 200 259 331 64 70 92 40 14 8 306 77 54 15 127 122 126
122 152 161 157 145 150 216 4 51 61 145 176 178 207 119 144 295 321 62 52 27 8 312 316 358 305 296 326 345 358 18 317 286 111 90 68 352 0 69 66 96 134 95 102 124
143 105 113 142 155 155 267 23 35 2 315 277 287 304 95 20 324 9 41 35 3 9 43 346 7 341 306 293 219 324 303 228 242 74 81 100 46 45 37 77 74 52 75 85 88
121 81 117 140 147 258 244 46 33 83 339 322 18 105 57 38 7 28 35 90 9 344 301 8 320 321 285 18 3 354 2 340 303 338 106 124 75 9 64 64 79 81 73 73 71
91 73 137 124 197 264 144 8 342 41 312 310 317 40 47 37 26 33 40 25 1 340 7 16 27 66 17 323 326 302 13 3 319 14 15 84 73 67 75 57 75 78 69 56 61
83 89 139 13 109 162 106 44 332 333 358 357 24 29 27 41 31 15 7 24 13 21 20 343 30 177 286 212 186 34 10 4 3 355 2 22 116 106 74 60 49 52 49 50 48
116 115 173 303 306 288 118 112 129 5 339 358 38 15 359 34 38 72 39 12 1 14 338 280 29 13 56 35 339 5 18 30 50 39 70 94 118 79 65 56 49 52 57 55 47
93 120 167 177 215 146 102 136 163 157 359 347 89 46 6 19 38 40 27 351 67 18 28 0 59 50 57 41 39 31 25 33 55 36 109 119 102 82 59 57 67 58 48 43 38
98 142 166 144 140 152 161 185 190 139 324 34 74 31 23 49 16 27 340 15 25 358 57 48 125 13 45 32 34 46 30 36 52 55 95 111 92 67 75 79 80 69 63 48 28
89 139 151 158 160 164 177 161 178 210 94 40 42 81 65 50 50 61 66 60 32 348 13 14 126 270 84 11 323 222 18 35 60 47 350 120 85 31 54 42 57 106 91 60 10
Height
1490 1490 1490 1490 1488 1487 1486 1486 1485 1485 1483 1484 1485 1484 1483 1481 1481 1482 1483 1485 1485 1483 1485 1488 1489 1489 1488 1488 1489 1490 1485 1469 1466 1463 1460 1458 1455 1460 1464 1468 1468 1468 1468 1473 1469
1483 1483 1484 1484 1484 1485 1483 1482 1482 1483 1482 1481 1480 1482 1481 1480 1480 1481 1481 1480 1482 1483 1486 1487 1487 1488 1486 1484 1485 1486 1478 1470 1466 1462 1458 1457 1457 1455 1458 1465 1465 1467 1467 1468 1467
1480 1477 1477 1479 1478 1480 1479 1478 1479 1480 1479 1479 1479 1480 1479 1479 1481 1478 1476 1478 1481 1483 1485 1486 1488 1488 1485 1482 1480 1479 1472 1470 1466 1464 1463 1459 1456 1457 1459 1460 1468 1467 1468 1468 1465
1476 1473 1471 1472 1473 1474 1475 1473 1475 1476 1476 1476 1477 1477 1478 1479 1479 1479 1477 1479 1482 1483 1485 1487 1488 1487 1484 1480 1478 1476 1472 1471 1470 1467 1469 1463 1465 1458 1462 1463 1463 1464 1465 1465 1466
1471 1469 1466 1466 1467 1469 1469 1471 1472 1474 1474 1473 1475 1477 1477 1481 1480 1477 1477 1479 1481 1482 1486 1488 1488 1484 1481 1477 1477 1475 1472 1470 1470 1469 1468 1467 1466 1463 1458 1462 1462 1461 1464 1463 1464
1468 1466 1462 1462 1462 1463 1465 1468 1469 1470 1471 1472 1473 1477 1478 1480 1477 1478 1479 1480 1482 1485 1486 1487 1486 1484 1481 1480 1479 1475 1471 1468 1468 1466 1467 1467 1465 1464 1459 1461 1462 1460 1461 1461 1461
1465 1461 1458 1459 1457 1459 1462 1465 1467 1467 1469 1470 1472 1476 1478 1478 1477 1478 1478 1481 1483 1484 1485 1486 1486 1485 1481 1479 1477 1476 1471 1466 1465 1464 1463 1466 1461 1456 1456 1457 1459 1457 1455 1457 1459
1462 1458 1456 1457 1459 1455 1459 1462 1465 1465 1465 1468 1472 1475 1476 1475 1476 1476 1479 1481 1482 1484 1485 1485 1485 1484 1483 1482 1478 1475 1469 1461 1452 1458 1458 1464 1455 1447 1452 1455 1455 1454 1454 1453 1453
1459 1454 1453 1452 1454 1455 1457 1461 1462 1463 1467 1469 1472 1473 1475 1473 1474 1476 1478 1480 1481 1482 1482 1483 1484 1482 1482 1482 1478 1468 1459 1450 1447 1447 1448 1454 1450 1443 1444 1451 1451 1451 1450 1448 1452
1455 1452 1448 1442 1447 1451 1456 1458 1461 1465 1468 1470 1472 1476 1475 1474 1474 1475 1477 1478 1479 1479 1480 1480 1480 1478 1478 1481 1463 1456 1453 1441 1440 1440 1440 1445 1445 1440 1445 1448 1447 1447 1446 1448 1450
1452 1449 1447 1443 1446 1450 1453 1457 1466 1469 1467 1467 1466 1469 1473 1474 1473 1473 1476 1476 1477 1477 1473 1473 1478 1471 1467 1466 1464 1458 1445 1440 1437 1432 1437 1434 1441 1439 1441 1444 1444 1444 1443 1440 1444
1448 1446 1447 1448 1448 1450 1452 1454 1457 1459 1464 1465 1466 1469 1471 1472 1472 1472 1474 1475 1472 1470 1469 1474 1467 1462 1466 1461 1460 1457 1444 1436 1427 1432 1432 1429 1433 1434 1435 1438 1438 1439 1441 1443 1440
1445 1444 1444 1445 1448 1451 1453 1455 1456 1458 1459 1465 1466 1468 1471 1472 1470 1469 1472 1470 1467 1466 1467 1466 1457 1462 1463 1452 1449 1443 1438 1433 1443 1426 1425 1425 1430 1430 1433 1435 1436 1438 1442 1441 1440
1442 1441 1440 1445 1451 1451 1453 1453 1456 1458 1457 1464 1466 1469 1469 1470 1469 1468 1467 1470 1467 1464 1463 1461 1459 1459 1457 1448 1443 1433 1428 1441 1436 1423 1425 1417 1429 1431 1431 1432 1432 1434 1436 1437 1435
1441 1442 1445 1446 1447 1450 1452 1455 1456 1458 1447 1466 1467 1467 1468 1470 1466 1465 1465 1465 1465 1462 1465 1456 1454 1455 1452 1442 1441 1436 1425 1430 1423 1413 1414 1428 1429 1433 1430 1430 1428 1432 1434 1434 1438
1441 1442 1446 1449 1449 1451 1453 1457 1459 1455 1452 1467 1464 1465 1466 1463 1461 1463 1464 1465 1464 1462 1460 1456 1455 1455 1447 1439 1439 1438 1433 1439 1429 1424 1416 1419 1419 1432 1439 1436 1434 1433 1434 1436 1438
1441 1442 1446 1450 1451 1453 1456 1460 1457 1445 1465 1464 1462 1461 1455 1454 1455 1458 1457 1461 1457 1454 1451 1453 1449 1448 1447 1441 1446 1451 1438 1426 1425 1426 1422 1416 1415 1442 1445 1441 1437 1438 1436 1437 1439
1442 1445 1448 1451 1453 1456 1459 1460 1448 1454 1457 1459 1458 1457 1452 1453 1452 1452 1448 1457 1456 1454 1446 1446 1449 1453 1442 1440 1439 1447 1430 1426 1427 1426 1423 1419 1442 1448 1444 1444 1440 1436 1437 1439 1441
1445 1448 1451 1454 1457 1460 1462 1455 1456 1455 1456 1456 1457 1449 1450 1450 1453 1447 1447 1451 1452 1451 1452 1448 1449 1447 1442 1437 1435 1427 1430 1427 1417 1406 1423 1440 1449 1446 1436 1439 1444 1444 1439 1442 1446
1448 1452 1456 1459 1462 1465 1462 1458 1459 1461 1460 1457 1448 1448 1445 1448 1446 1444 1445 1454 1454 1453 1454 1450 1451 1444 1440 1434 1431 1429 1429 1423 1417 1414 1428 1445 1453 1453 1442 1437 1442 1441 1441 1447 1451
1452 1458 1464 1465 1468 1468 1461 1460 1460 1462 1463 1458 1451 1450 1449 1449 1449 1447 1451 1455 1455 1453 1451 1450 1447 1447 1438 1440 1441 1428 1422 1418 1419 1416 1412 1428 1447 1447 1446 1445 1446 1450 1451 1456 1458
1455 1462 1468 1470 1473 1466 1459 1465 1465 1463 1462 1459 1456 1453 1451 1453 1451 1449 1453 1456 1457 1455 1448 1448 1444 1449 1446 1442 1444 1442 1437 1429 1424 1421 1414 1417 1454 1449 1449 1451 1453 1453 1454 1458 1458
1460 1467 1472 1472 1469 1463 1467 1465 1465 1463 1461 1459 1456 1457 1456 1454 1454 1455 1455 1459 1458 1454 1454 1451 1448 1451 1442 1440 1439 1439 1435 1431 1431 1428 1433 1423 1456 1453 1452 1454 1454 1453 1456 1459 1459
1460 1469 1474 1474 1471 1465 1467 1465 1464 1467 1464 1463 1461 1459 1456 1455 1456 1457 1456 1458 1459 1458 1457 1454 1451 1447 1447 1455 1452 1444 1440 1436 1437 1436 1430 1442 1453 1459 1462 1462 1463 1461 1464 1466 1463
1459 1466 1468 1471 1470 1469 1472 1466 1465 1465 1466 1465 1462 1460 1459 1457 1457 1456 1457 1455 1458 1458 1457 1452 1459 1461 1455 1454 1456 1449 1446 1443 1449 1441 1446 1449 1458 1463 1466 1469 1472 1473 1471 1465 1463
1461 1463 1468 1468 1469 1470 1473 1467 1465 1468 1467 1465 1462 1463 1460 1461 1463 1459 1460 1458 1458 1455 1456 1457 1464 1463 1457 1454 1452 1452 1449 1447 1449 1450 1451 1454 1464 1466 1468 1469 1470 1471 1470 1470 1470
1462 1463 1463 1471 1469 1471 1468 1468 1468 1469 1471 1470 1467 1464 1466 1469 1467 1467 1466 1465 1465 1460 1455 1455 1457 1458 1461 1459 1454 1452 1460 1455 1457 1459 1458 1453 1465 1466 1468 1470 1471 1473 1474 1474 1478